Back to catalog

STARLINK-5311

AliveCommunicationsVLEO
NORAD 55288·PAYLOAD·🇺🇸 United States

Launched Jan 19, 2023 from Vandenberg Space Force Base

Loading…

Next Passes (next 24 hours)

TLE

FreshSource: CelesTrak SupGP

Epoch: Sep 14, 2026, 13:39 UTC

1 55288C 23010V   26257.56923611 -.00019249  00000+0 -16138-2 0  2573
2 55288  69.9995 268.2062 0003788 271.2264  24.3683 14.98322258    14

Track STARLINK-5311 in real time with AllMySat

Download on the App Store